| time (UTC) | temp C | wind direction | speed KPH | gust KPH | rain 1hr cm | rain 24hr cm | rain mn cm | humidity % | barometer mb |
| 20260503050204 | 10 | 334 | 3.2 | 9.7 | 0.00 | 0.46 | 0.38 | 98 | 1011.9 |
| 20260503045204 | 10 | 324 | 3.2 | 8.0 | 0.00 | 0.46 | 0.38 | 98 | 1011.8 |
| 20260503044704 | 10 | 306 | 6.4 | 8.0 | 0.00 | 0.46 | 0.38 | 98 | 1011.8 |
| 20260503044204 | 10 | 312 | 0.0 | 8.0 | 0.00 | 0.46 | 0.38 | 98 | 1011.8 |
| 20260503043704 | 10 | 312 | 0.0 | 8.0 | 0.00 | 0.46 | 0.38 | 98 | 1011.8 |
| 20260503043205 | 10 | 320 | 1.6 | 8.0 | 0.00 | 0.46 | 0.38 | 98 | 1011.8 |
| 20260503042204 | 10 | 307 | 0.0 | 8.0 | 0.00 | 0.46 | 0.38 | 98 | 1011.8 |
| 20260503041705 | 10 | 331 | 0.0 | 8.0 | 0.00 | 0.46 | 0.38 | 98 | 1011.8 |
| 20260503041204 | 10 | 344 | 0.0 | 8.0 | 0.00 | 0.46 | 0.38 | 98 | 1011.8 |
| 20260503040705 | 10 | 324 | 3.2 | 9.7 | 0.00 | 0.46 | 0.38 | 98 | 1011.8 |
| 20260503040205 | 10 | 299 | 3.2 | 9.7 | 0.00 | 0.46 | 0.38 | 98 | 1011.8 |
| 20260503035721 | 10 | 336 | 0.0 | 9.7 | 0.00 | 0.46 | 0.38 | 98 | 1011.8 |
| 20260503035205 | 10 | 316 | 3.2 | 9.7 | 0.00 | 0.46 | 0.38 | 98 | 1011.8 |
| 20260503034204 | 10 | 329 | 1.6 | 3.2 | 0.00 | 0.46 | 0.38 | 98 | 1011.8 |
| 20260503033720 | 10 | 320 | 0.0 | 0.0 | 0.00 | 0.46 | 0.38 | 98 | 1011.8 |
| 20260503033204 | 10 | 320 | 0.0 | 0.0 | 0.03 | 0.46 | 0.38 | 98 | 1011.9 |
| 20260503032705 | 10 | 320 | 0.0 | 8.0 | 0.03 | 0.46 | 0.38 | 98 | 1011.9 |
| 20260503031704 | 10 | 320 | 0.0 | 8.0 | 0.03 | 0.46 | 0.38 | 98 | 1012.0 |
| 20260503031204 | 10 | 320 | 0.0 | 8.0 | 0.03 | 0.46 | 0.38 | 98 | 1012.0 |
| 20260503030705 | 10 | 344 | 1.6 | 0.0 | 0.03 | 0.46 | 0.38 | 98 | 1012.0 |
| 20260503030204 | 10 | 309 | 0.0 | 0.0 | 0.03 | 0.46 | 0.38 | 98 | 1012.0 |
| 20260503025704 | 10 | 309 | 0.0 | 0.0 | 0.03 | 0.46 | 0.38 | 98 | 1012.1 |
| 20260503025204 | 10 | 309 | 0.0 | 0.0 | 0.03 | 0.46 | 0.38 | 98 | 1012.1 |
| 20260503024704 | 10 | 309 | 0.0 | 0.0 | 0.05 | 0.46 | 0.38 | 98 | 1012.1 |
| 20260503023705 | 10 | 309 | 0.0 | 0.0 | 0.05 | 0.46 | 0.38 | 98 | 1012.1 |
| 20260503023204 | 10 | 309 | 0.0 | 0.0 | 0.03 | 0.43 | 0.36 | 98 | 1012.1 |
| 20260503022205 | 10 | 309 | 0.0 | 0.0 | 0.03 | 0.43 | 0.36 | 96 | 1012.2 |
| 20260503020705 | 10 | 309 | 0.0 | 0.0 | 0.05 | 0.43 | 0.36 | 96 | 1012.2 |
| 20260503020204 | 10 | 309 | 0.0 | 0.0 | 0.05 | 0.43 | 0.36 | 96 | 1012.3 |
| 20260503015705 | 10 | 309 | 0.0 | 0.0 | 0.05 | 0.43 | 0.36 | 96 | 1012.3 |
| 20260503015205 | 10 | 309 | 0.0 | 0.0 | 0.05 | 0.41 | 0.33 | 96 | 1012.3 |
| 20260503014704 | 10 | 309 | 0.0 | 4.8 | 0.05 | 0.41 | 0.33 | 96 | 1012.3 |
| 20260503013205 | 10 | 309 | 0.0 | 6.4 | 0.15 | 0.41 | 0.33 | 96 | 1012.4 |
| 20260503012205 | 10 | 351 | 0.0 | 8.0 | 0.20 | 0.41 | 0.33 | 96 | 1012.4 |
| 20260503010705 | 10 | 14 | 0.0 | 11.3 | 0.20 | 0.38 | 0.30 | 96 | 1012.5 |
| 20260503010205 | 10 | 354 | 0.0 | 11.3 | 0.20 | 0.38 | 0.30 | 96 | 1012.5 |
| 20260503005705 | 10 | 340 | 6.4 | 11.3 | 0.18 | 0.36 | 0.28 | 96 | 1012.5 |
| 20260503005204 | 10 | 348 | 9.7 | 11.3 | 0.18 | 0.36 | 0.28 | 96 | 1012.5 |
| 20260503004704 | 10 | 11 | 8.0 | 8.0 | 0.20 | 0.36 | 0.28 | 96 | 1012.5 |
| 20260503003705 | 10 | 30 | 0.0 | 8.0 | 0.15 | 0.28 | 0.20 | 96 | 1012.6 |
| 20260503003205 | 10 | 23 | 0.0 | 1.6 | 0.10 | 0.23 | 0.15 | 96 | 1012.5 |
| 20260503002205 | 10 | 46 | 0.0 | 0.0 | 0.08 | 0.20 | 0.13 | 96 | 1012.6 |
| 20260503001704 | 10 | 46 | 0.0 | 0.0 | 0.10 | 0.20 | 0.13 | 96 | 1012.6 |
| 20260503001204 | 10 | 46 | 0.0 | 0.0 | 0.10 | 0.20 | 0.13 | 96 | 1012.7 |
| 20260503000705 | 11 | 46 | 0.0 | 4.8 | 0.08 | 0.18 | 0.10 | 95 | 1012.7 |
| 20260503000205 | 11 | 46 | 0.0 | 4.8 | 0.10 | 0.18 | 0.10 | 95 | 1012.7 |
| 20260502235705 | 11 | 46 | 0.0 | 4.8 | 0.13 | 0.18 | 0.10 | 95 | 1012.7 |
| 20260502235232 | 11 | 46 | 0.0 | 0.0 | 0.13 | 0.15 | 0.08 | 95 | 1012.8 |
| 20260502234705 | 11 | 23 | 0.0 | 0.0 | 0.15 | 0.15 | 0.08 | 94 | 1012.7 |
| 20260502234204 | 11 | 23 | 0.0 | 3.2 | 0.15 | 0.15 | 0.08 | 94 | 1012.8 |
| 20260502233704 | 11 | 23 | 0.0 | 3.2 | 0.13 | 0.13 | 0.05 | 94 | 1012.7 |
| 20260502233204 | 11 | 23 | 0.0 | 3.2 | 0.13 | 0.13 | 0.05 | 94 | 1012.8 |
| 20260502232205 | 11 | 23 | 0.0 | 4.8 | 0.10 | 0.10 | 0.03 | 94 | 1012.7 |
| 20260502231705 | 11 | 23 | 0.0 | 6.4 | 0.10 | 0.10 | 0.03 | 94 | 1012.7 |
| 20260502231205 | 11 | 37 | 0.0 | 8.0 | 0.10 | 0.10 | 0.03 | 94 | 1012.7 |
| 20260502230204 | 11 | 37 | 3.2 | 8.0 | 0.08 | 0.08 | 0.08 | 93 | 1012.8 |
| 20260502225705 | 11 | 77 | 0.0 | 8.0 | 0.03 | 0.03 | 0.03 | 93 | 1012.8 |
| 20260502225205 | 11 | 99 | 1.6 | 9.7 | 0.03 | 0.03 | 0.03 | 93 | 1012.8 |
| 20260502224704 | 11 | 84 | 3.2 | 9.7 | 0.00 | 0.00 | 0.00 | 93 | 1012.8 |
| 20260502224205 | 11 | 95 | 3.2 | 9.7 | 0.00 | 0.00 | 0.00 | 93 | 1012.9 |
| 20260502223704 | 11 | 70 | 0.0 | 9.7 | 0.00 | 0.00 | 0.00 | 93 | 1012.9 |
| 20260502223205 | 11 | 71 | 4.8 | 9.7 | 0.00 | 0.00 | 0.00 | 93 | 1012.9 |
| 20260502222704 | 11 | 73 | 0.0 | 8.0 | 0.00 | 0.00 | 0.00 | 92 | 1012.9 |
| 20260502222205 | 11 | 53 | 0.0 | 6.4 | 0.00 | 0.00 | 0.00 | 92 | 1013.0 |
| 20260502221705 | 11 | 53 | 0.0 | 6.4 | 0.00 | 0.00 | 0.00 | 92 | 1012.9 |
| 20260502221204 | 11 | 49 | 0.0 | 6.4 | 0.00 | 0.00 | 0.00 | 92 | 1012.9 |
| 20260502220704 | 11 | 88 | 0.0 | 0.0 | 0.00 | 0.00 | 0.00 | 92 | 1012.9 |
| 20260502220204 | 10 | 106 | 0.0 | 0.0 | 0.00 | 0.00 | 0.00 | 93 | 1013.0 |
| 20260502215705 | 10 | 106 | 0.0 | 8.0 | 0.00 | 0.00 | 0.00 | 93 | 1013.0 |
| 20260502214705 | 10 | 106 | 0.0 | 8.0 | 0.00 | 0.00 | 0.00 | 92 | 1012.9 |
| 20260502214204 | 10 | 108 | 1.6 | 6.4 | 0.00 | 0.00 | 0.00 | 92 | 1012.9 |
| 20260502213704 | 10 | 112 | 3.2 | 0.0 | 0.00 | 0.00 | 0.00 | 92 | 1012.9 |
| 20260502213204 | 10 | 66 | 0.0 | 3.2 | 0.00 | 0.00 | 0.00 | 90 | 1012.9 |
| 20260502212704 | 10 | 66 | 0.0 | 3.2 | 0.00 | 0.00 | 0.00 | 90 | 1012.9 |
| 20260502212205 | 10 | 66 | 0.0 | 3.2 | 0.00 | 0.00 | 0.00 | 90 | 1012.9 |
| 20260502211704 | 10 | 66 | 0.0 | 3.2 | 0.00 | 0.00 | 0.00 | 89 | 1012.9 |
| 20260502211204 | 10 | 85 | 0.0 | 0.0 | 0.00 | 0.00 | 0.00 | 89 | 1012.9 |
| 20260502210704 | 10 | 85 | 0.0 | 0.0 | 0.00 | 0.00 | 0.00 | 87 | 1012.9 |
| 20260502210205 | 10 | 85 | 0.0 | 0.0 | 0.00 | 0.00 | 0.00 | 87 | 1012.9 |
| 20260502205705 | 10 | 85 | 0.0 | 0.0 | 0.00 | 0.00 | 0.00 | 87 | 1012.9 |
| 20260502205205 | 10 | 85 | 0.0 | 0.0 | 0.00 | 0.00 | 0.00 | 87 | 1012.8 |
| 20260502204205 | 11 | 85 | 0.0 | 0.0 | 0.00 | 0.00 | 0.00 | 87 | 1012.8 |
| 20260502203705 | 11 | 85 | 0.0 | 0.0 | 0.00 | 0.00 | 0.00 | 86 | 1012.8 |
| 20260502203205 | 11 | 85 | 0.0 | 0.0 | 0.00 | 0.00 | 0.00 | 86 | 1012.8 |
| 20260502202704 | 11 | 85 | 0.0 | 0.0 | 0.00 | 0.00 | 0.00 | 86 | 1012.8 |
| 20260502202205 | 11 | 85 | 0.0 | 3.2 | 0.00 | 0.00 | 0.00 | 86 | 1012.8 |
| 20260502201704 | 11 | 85 | 0.0 | 3.2 | 0.00 | 0.00 | 0.00 | 85 | 1012.8 |
| 20260502201204 | 11 | 85 | 0.0 | 4.8 | 0.00 | 0.00 | 0.00 | 85 | 1012.8 |
| 20260502200705 | 11 | 85 | 0.0 | 4.8 | 0.00 | 0.00 | 0.00 | 85 | 1012.8 |
| 20260502200204 | 11 | 85 | 0.0 | 4.8 | 0.00 | 0.00 | 0.00 | 85 | 1012.8 |
| 20260502195704 | 11 | 149 | 0.0 | 8.0 | 0.00 | 0.00 | 0.00 | 85 | 1012.8 |
| 20260502195204 | 11 | 105 | 0.0 | 8.0 | 0.00 | 0.00 | 0.00 | 85 | 1012.8 |
| 20260502194704 | 11 | 94 | 0.0 | 8.0 | 0.00 | 0.00 | 0.00 | 85 | 1012.7 |
| 20260502194205 | 11 | 90 | 0.0 | 11.3 | 0.00 | 0.00 | 0.00 | 85 | 1012.7 |
| 20260502193705 | 11 | 112 | 0.0 | 11.3 | 0.00 | 0.00 | 0.00 | 84 | 1012.6 |
| 20260502193205 | 11 | 187 | 3.2 | 11.3 | 0.00 | 0.00 | 0.00 | 84 | 1012.6 |
| 20260502192705 | 11 | 105 | 0.0 | 11.3 | 0.00 | 0.00 | 0.00 | 84 | 1012.5 |
| 20260502192205 | 11 | 111 | 6.4 | 9.7 | 0.00 | 0.00 | 0.00 | 84 | 1012.5 |
| 20260502191704 | 11 | 98 | 0.0 | 9.7 | 0.00 | 0.00 | 0.00 | 84 | 1012.5 |
| 20260502191205 | 11 | 98 | 0.0 | 12.9 | 0.00 | 0.00 | 0.00 | 84 | 1012.5 |
| 20260502190705 | 12 | 105 | 0.0 | 12.9 | 0.00 | 0.00 | 0.00 | 83 | 1012.5 |
| 20260502190205 | 12 | 108 | 1.6 | 12.9 | 0.00 | 0.00 | 0.00 | 83 | 1012.5 |
| 20260502185204 | 12 | 209 | 4.8 | 9.7 | 0.00 | 0.00 | 0.00 | 83 | 1012.5 |
| 20260502184704 | 12 | 84 | 3.2 | 9.7 | 0.00 | 0.00 | 0.00 | 83 | 1012.6 |
| 20260502184205 | 12 | 164 | 1.6 | 11.3 | 0.00 | 0.00 | 0.00 | 83 | 1012.5 |
| 20260502183704 | 12 | 88 | 1.6 | 16.1 | 0.00 | 0.00 | 0.00 | 83 | 1012.5 |
| 20260502183204 | 12 | 163 | 4.8 | 16.1 | 0.00 | 0.00 | 0.00 | 83 | 1012.5 |
| 20260502182705 | 12 | 108 | 0.0 | 16.1 | 0.00 | 0.00 | 0.00 | 83 | 1012.4 |
| 20260502182205 | 12 | 178 | 6.4 | 16.1 | 0.00 | 0.00 | 0.00 | 83 | 1012.5 |
| 20260502181705 | 12 | 202 | 9.7 | 16.1 | 0.00 | 0.00 | 0.00 | 83 | 1012.5 |
| 20260502180705 | 12 | 163 | 3.2 | 17.7 | 0.00 | 0.00 | 0.00 | 83 | 1012.5 |
| 20260502180205 | 12 | 170 | 0.0 | 17.7 | 0.00 | 0.00 | 0.00 | 82 | 1012.6 |
| 20260502170205 | 12 | 146 | 0.0 | 16.1 | 0.00 | 0.00 | 0.00 | 82 | 1012.6 |
| 20260502164204 | 12 | 143 | 1.6 | 12.9 | 0.00 | 0.00 | 0.00 | 81 | 1012.6 |
| 20260502163704 | 12 | 129 | 4.8 | 14.5 | 0.00 | 0.00 | 0.00 | 81 | 1012.6 |
| 20260502163205 | 12 | 113 | 3.2 | 16.1 | 0.00 | 0.00 | 0.00 | 79 | 1012.5 |
| 20260502162704 | 12 | 151 | 8.0 | 16.1 | 0.00 | 0.00 | 0.00 | 79 | 1012.5 |
| 20260502162204 | 12 | 154 | 3.2 | 16.1 | 0.00 | 0.00 | 0.00 | 81 | 1012.5 |
| 20260502161704 | 12 | 205 | 6.4 | 16.1 | 0.00 | 0.00 | 0.00 | 81 | 1012.5 |
| 20260502161204 | 12 | 160 | 8.0 | 16.1 | 0.00 | 0.00 | 0.00 | 81 | 1012.5 |
| 20260502160704 | 12 | 151 | 1.6 | 16.1 | 0.00 | 0.00 | 0.00 | 81 | 1012.5 |
| 20260502160204 | 12 | 111 | 4.8 | 14.5 | 0.00 | 0.00 | 0.00 | 82 | 1012.5 |
| 20260502152205 | 12 | 167 | 8.0 | 17.7 | 0.00 | 0.00 | 0.00 | 81 | 1012.7 |
| 20260502150705 | 13 | 125 | 3.2 | 20.9 | 0.00 | 0.00 | 0.00 | 78 | 1012.8 |
| 20260502150205 | 13 | 144 | 8.0 | 19.3 | 0.00 | 0.00 | 0.00 | 79 | 1012.8 |
| 20260502130704 | 14 | 127 | 14.5 | 20.9 | 0.00 | 0.00 | 0.00 | 79 | 1013.8 |
| 20260502130204 | 14 | 165 | 3.2 | 24.1 | 0.00 | 0.00 | 0.00 | 79 | 1013.8 |
| 20260502123704 | 13 | 116 | 11.3 | 20.9 | 0.00 | 0.00 | 0.00 | 81 | 1014.0 |
| 20260502122205 | 13 | 165 | 6.4 | 20.9 | 0.00 | 0.00 | 0.00 | 82 | 1014.2 |
| 20260502121705 | 13 | 149 | 9.7 | 20.9 | 0.00 | 0.00 | 0.00 | 82 | 1014.3 |
| 20260502121205 | 13 | 156 | 4.8 | 20.9 | 0.00 | 0.00 | 0.00 | 82 | 1014.3 |
| 20260502120704 | 13 | 177 | 6.4 | 17.7 | 0.00 | 0.00 | 0.00 | 82 | 1014.5 |
| 20260502114705 | 13 | 91 | 6.4 | 22.5 | 0.00 | 0.00 | 0.00 | 84 | 1014.8 |
| 20260502114204 | 13 | 171 | 11.3 | 22.5 | 0.00 | 0.00 | 0.00 | 85 | 1014.9 |
| 20260502113704 | 13 | 164 | 11.3 | 19.3 | 0.00 | 0.00 | 0.00 | 84 | 1015.0 |
| 20260502113205 | 13 | 205 | 12.9 | 19.3 | 0.00 | 0.00 | 0.00 | 84 | 1015.0 |
| 20260502112705 | 13 | 147 | 6.4 | 19.3 | 0.00 | 0.00 | 0.00 | 84 | 1015.2 |
| 20260502112204 | 13 | 146 | 6.4 | 19.3 | 0.00 | 0.00 | 0.00 | 84 | 1015.2 |
| 20260502111705 | 13 | 130 | 11.3 | 17.7 | 0.00 | 0.00 | 0.00 | 84 | 1015.2 |
| 20260502111205 | 13 | 111 | 4.8 | 19.3 | 0.00 | 0.00 | 0.00 | 84 | 1015.2 |
| 20260502110704 | 13 | 208 | 6.4 | 22.5 | 0.00 | 0.00 | 0.00 | 85 | 1015.2 |
| 20260502110204 | 13 | 127 | 3.2 | 22.5 | 0.00 | 0.00 | 0.00 | 85 | 1015.3 |
| 20260502105205 | 12 | 133 | 14.5 | 20.9 | 0.00 | 0.00 | 0.00 | 85 | 1015.4 |
| 20260502104705 | 12 | 149 | 9.7 | 20.9 | 0.00 | 0.00 | 0.00 | 86 | 1015.5 |
| 20260502103705 | 12 | 125 | 9.7 | 20.9 | 0.00 | 0.00 | 0.00 | 87 | 1015.5 |
| 20260502103204 | 12 | 151 | 6.4 | 20.9 | 0.00 | 0.00 | 0.00 | 87 | 1015.5 |
| 20260502102704 | 12 | 175 | 0.0 | 19.3 | 0.00 | 0.00 | 0.00 | 87 | 1015.5 |
| 20260502102204 | 12 | 182 | 11.3 | 22.5 | 0.00 | 0.00 | 0.00 | 87 | 1015.6 |
| 20260502101704 | 12 | 135 | 3.2 | 22.5 | 0.00 | 0.00 | 0.00 | 86 | 1015.6 |
| 20260502101204 | 12 | 70 | 8.0 | 22.5 | 0.00 | 0.00 | 0.00 | 86 | 1015.6 |
| 20260502100704 | 12 | 154 | 9.7 | 19.3 | 0.00 | 0.00 | 0.00 | 86 | 1015.7 |
| 20260502091234 | 12 | 151 | 9.7 | 27.4 | 0.00 | 0.00 | 0.00 | 84 | 1015.9 |
| 20260502090705 | 12 | 174 | 12.9 | 22.5 | 0.00 | 0.00 | 0.00 | 84 | 1016.0 |
| 20260502090204 | 12 | 116 | 14.5 | 20.9 | 0.00 | 0.00 | 0.00 | 83 | 1016.0 |
| 20260502071205 | 11 | 126 | 6.4 | 14.5 | 0.00 | 0.00 | 0.00 | 89 | 1016.5 |
| 20260502070705 | 11 | 92 | 1.6 | 14.5 | 0.00 | 0.00 | 0.00 | 89 | 1016.5 |
| 20260502070204 | 11 | 112 | 3.2 | 14.5 | 0.00 | 0.00 | 0.00 | 89 | 1016.6 |
| 20260502065205 | 11 | 216 | 0.0 | 11.3 | 0.00 | 0.00 | 0.00 | 89 | 1016.6 |
| 20260502064704 | 11 | 74 | 6.4 | 9.7 | 0.00 | 0.00 | 0.00 | 89 | 1016.6 |
| 20260502063704 | 11 | 185 | 1.6 | 12.9 | 0.00 | 0.00 | 0.00 | 90 | 1016.6 |
| 20260502063204 | 11 | 60 | 0.0 | 12.9 | 0.00 | 0.00 | 0.00 | 90 | 1016.6 |
| 20260502062705 | 11 | 64 | 1.6 | 12.9 | 0.00 | 0.00 | 0.00 | 90 | 1016.6 |
| 20260502062205 | 11 | 99 | 4.8 | 11.3 | 0.00 | 0.00 | 0.00 | 90 | 1016.7 |
| 20260502061705 | 11 | 106 | 1.6 | 11.3 | 0.00 | 0.00 | 0.00 | 90 | 1016.7 |
| 20260502061205 | 11 | 70 | 4.8 | 11.3 | 0.00 | 0.00 | 0.00 | 90 | 1016.6 |
| 20260502060705 | 11 | 113 | 1.6 | 8.0 | 0.00 | 0.00 | 0.00 | 90 | 1016.6 |
| 20260502060205 | 11 | 115 | 0.0 | 8.0 | 0.00 | 0.00 | 0.00 | 90 | 1016.7 |
| 20260502055704 | 10 | 137 | 0.0 | 14.5 | 0.00 | 0.00 | 0.00 | 90 | 1016.7 |
| 20260502055205 | 10 | 84 | 0.0 | 14.5 | 0.00 | 0.00 | 0.00 | 90 | 1016.6 |
| 20260502054704 | 10 | 99 | 0.0 | 14.5 | 0.00 | 0.00 | 0.00 | 90 | 1016.6 |
| 20260502053705 | 11 | 118 | 3.2 | 12.9 | 0.00 | 0.00 | 0.00 | 90 | 1016.6 |
| 20260502053205 | 11 | 113 | 3.2 | 16.1 | 0.00 | 0.00 | 0.00 | 90 | 1016.6 |
| 20260502052705 | 11 | 158 | 3.2 | 16.1 | 0.00 | 0.00 | 0.00 | 90 | 1016.7 |
| 20260502052205 | 11 | 154 | 3.2 | 16.1 | 0.00 | 0.00 | 0.00 | 90 | 1016.7 |
| 20260502051704 | 11 | 75 | 4.8 | 16.1 | 0.00 | 0.00 | 0.00 | 90 | 1016.6 |
| 20260502051204 | 11 | 150 | 9.7 | 16.1 | 0.00 | 0.00 | 0.00 | 90 | 1016.7 |
| 20260502050704 | 11 | 171 | 0.0 | 16.1 | 0.00 | 0.00 | 0.00 | 90 | 1016.7 |